Temp
80 79 79 78 78 77 76 76 75 76 76 76 76 76 75 75 75 75 76 75 74 76 76 75 75 76 75 75 74 75 75 75 75 75 75 75 74 74 74 73 73 72 72 72 72 72 72 72 73 72 73 73 74 73 75 80 80 78 76 75 73 73
79 81 79 78 78 77 76 77 77 76 76 76 76 76 76 77 77 76 76 75 74 73 74 75 75 76 75 75 75 75 75 75 74 75 74 74 74 74 73 73 73 73 72 72 72 72 72 73 73 73 73 74 72 73 77 79 78 78 76 73 73 73
78 78 77 79 78 77 77 77 78 77 77 76 77 77 77 78 77 77 75 74 70 68 68 72 75 76 77 75 75 75 75 74 74 74 75 75 74 74 73 73 73 72 72 72 72 73 73 73 72 75 74 72 72 75 79 79 77 76 75 73 72 74
76 76 77 75 76 76 76 76 76 77 76 76 75 77 77 72 70 70 70 71 69 70 70 69 70 76 78 75 74 75 75 74 74 74 75 75 74 74 73 73 73 73 72 73 73 76 76 75 74 73 72 73 74 79 79 79 78 75 74 75 74 74
74 75 76 74 74 72 75 73 73 73 70 71 70 71 69 70 70 71 70 70 70 71 71 69 70 72 72 74 74 74 73 73 73 74 74 74 74 75 73 74 73 72 73 73 74 76 77 76 76 76 75 75 78 78 80 78 77 76 73 72 72 74
75 74 74 74 73 74 75 73 72 72 70 69 70 70 69 70 70 70 70 71 72 72 72 70 70 71 72 72 73 74 73 74 74 75 74 75 74 74 73 75 75 74 74 74 75 76 79 78 77 77 77 78 77 78 78 79 76 74 72 70 72 74
73 72 73 75 74 75 73 73 72 71 69 69 70 70 69 69 71 70 71 72 70 71 71 72 70 71 71 71 71 74 74 74 74 75 74 75 76 75 75 75 75 75 75 76 76 79 80 80 79 80 77 78 78 79 78 77 76 74 72 71 72 74
73 72 73 74 74 74 70 71 72 72 71 71 70 69 70 71 71 71 72 71 72 70 70 71 70 70 70 70 71 71 74 75 77 77 76 76 77 76 76 76 75 77 78 78 80 80 79 81 78 79 78 78 78 77 78 78 76 74 72 71 71 73
74 75 73 73 73 72 72 72 71 71 70 71 70 70 71 71 71 72 72 73 72 71 71 71 69 69 69 69 69 70 69 68 69 74 76 76 77 76 76 76 75 77 78 78 77 78 81 80 78 78 77 78 79 77 78 77 76 75 73 71 71 72
73 73 72 72 73 72 72 71 71 72 71 72 70 71 72 71 71 72 72 72 72 72 70 70 70 70 69 68 69 69 70 69 69 69 73 75 75 75 75 75 76 76 80 79 78 78 77 78 78 78 78 78 76 78 77 77 77 76 74 72 70 70
74 73 73 73 73 73 73 73 74 73 74 73 72 72 71 72 72 73 73 72 73 72 71 71 71 71 70 69 69 69 69 70 69 69 69 74 76 76 76 75 74 74 74 75 77 78 78 77 77 78 78 77 76 76 77 77 78 79 75 72 71 70
74 74 74 75 75 74 74 74 74 74 74 74 73 72 72 73 73 74 74 73 72 72 72 71 72 72 71 70 69 69 69 69 68 69 69 69 74 76 76 76 76 74 72 71 72 75 77 76 75 77 78 78 78 77 77 76 77 78 74 73 72 70
76 75 75 75 76 75 75 76 74 75 75 75 74 74 74 73 74 75 74 74 73 73 72 72 72 73 73 71 70 69 69 68 69 68 68 69 71 75 75 73 73 72 70 70 69 72 78 77 75 76 77 77 76 77 78 78 76 77 74 73 72 71
75 74 75 76 76 76 76 77 77 77 76 75 76 76 74 75 75 75 75 75 74 75 74 74 74 72 72 71 71 70 69 69 69 69 68 69 69 74 74 73 74 71 70 69 70 71 74 74 75 76 76 76 76 76 76 76 75 75 75 74 73 71
76 76 77 77 76 76 77 78 79 77 77 76 77 77 74 75 74 75 76 75 74 74 74 75 75 73 72 72 71 70 69 69 70 69 68 70 74 74 74 73 73 72 69 69 71 73 74 73 74 73 74 75 75 76 76 74 75 76 75 74 74 73
77 76 77 77 77 78 78 78 78 79 77 77 77 77 75 72 73 75 76 75 75 75 75 76 75 74 72 72 71 69 69 70 70 70 71 72 73 73 73 73 73 72 67 68 70 71 73 74 73 73 74 73 74 74 74 75 75 75 75 74 72 71
76 77 77 78 78 78 77 77 78 79 79 78 77 76 78 71 71 72 74 74 75 74 75 75 76 75 72 72 71 71 70 70 71 71 71 71 72 73 73 74 72 73 71 68 71 73 73 72 72 72 73 73 73 73 72 73 74 74 75 73 72 72
77 77 76 77 78 78 77 78 77 78 78 77 75 77 77 76 71 72 72 74 73 73 74 75 75 74 72 73 73 72 71 71 71 71 71 71 71 73 73 73 72 73 73 71 70 71 69 68 65 65 70 72 72 72 73 73 73 73 74 73 71 72
77 77 76 77 78 78 78 77 77 77 77 75 75 76 78 77 76 71 71 74 74 72 72 74 74 74 71 72 72 72 71 71 71 70 70 70 71 71 72 72 72 72 73 73 70 69 67 66 66 68 68 70 70 72 72 72 72 72 73 74 73 73
77 77 77 77 78 77 77 76 74 73 72 72 74 76 76 77 77 72 73 73 73 70 72 72 72 74 72 71 71 71 71 71 71 70 70 70 70 70 71 71 71 71 70 68 68 67 67 66 65 65 65 64 66 68 73 72 72 73 72 73 73 73
76 78 77 77 76 76 75 75 75 73 74 75 73 75 76 77 77 74 74 74 73 68 70 71 73 73 72 72 71 71 72 71 72 71 70 70 71 71 72 72 70 68 68 67 66 67 66 66 64 63 63 64 64 67 68 71 71 72 72 72 72 72
75 76 76 76 75 75 76 74 72 74 75 76 76 75 75 76 76 76 76 76 75 71 72 71 72 73 72 71 71 71 71 70 70 70 70 72 72 71 71 70 69 67 68 66 65 66 66 65 63 61 61 61 63 65 69 68 70 73 73 73 72 72
75 75 75 76 76 75 75 76 75 75 75 75 78 77 77 78 77 77 76 77 77 75 73 71 72 73 72 72 71 71 71 70 70 70 69 69 70 70 70 69 68 67 66 67 66 67 66 66 63 64 63 60 60 60 63 64 67 69 71 70 70 71
73 74 75 76 75 76 76 77 77 77 77 76 75 76 77 77 77 76 75 76 77 76 76 74 72 72 72 72 71 70 70 69 69 69 69 69 69 69 69 69 67 67 67 64 65 65 67 66 65 62 58 60 61 61 58 59 62 66 69 69 69 70
73 73 74 74 75 75 75 75 76 76 76 76 76 75 75 75 76 76 76 76 76 77 77 76 73 73 72 72 72 71 70 70 69 68 68 68 68 69 70 70 68 66 66 65 64 65 65 66 65 66 64 59 58 57 58 62 63 62 66 66 68 70
71 72 73 74 75 75 74 73 73 72 71 71 70 71 70 71 72 73 75 76 77 78 77 76 74 74 74 72 72 72 70 70 69 68 68 68 68 68 69 68 69 67 66 67 66 64 64 66 66 66 66 66 65 61 60 62 61 56 65 67 68 72
70 71 72 72 73 74 73 73 73 72 72 71 70 72 73 74 74 75 75 74 75 76 77 76 75 76 74 73 72 72 71 70 70 70 69 68 67 67 68 70 70 68 67 67 66 63 64 64 65 66 67 67 66 63 64 62 59 61 57 62 66 67
70 70 71 72 72 73 71 72 72 72 72 72 72 71 73 73 75 75 74 74 74 74 75 75 75 75 75 74 73 72 71 70 69 69 67 67 68 67 68 69 69 69 68 67 66 65 64 65 63 63 66 65 65 65 64 65 65 63 62 59 61 66
69 70 70 71 71 71 71 71 71 72 71 72 73 73 74 75 74 74 74 74 74 75 75 75 75 73 73 74 73 73 72 70 69 69 68 68 68 69 68 67 67 66 67 67 66 66 65 65 65 64 64 64 64 63 63 64 65 63 58 58 60 62
69 69 70 70 70 70 71 71 70 70 69 70 71 72 73 73 72 73 72 73 72 72 73 73 73 71 71 72 72 72 72 71 70 70 69 68 69 69 68 68 68 67 67 67 67 66 66 66 66 66 65 64 63 63 62 61 62 61 62 63 59 61
69 69 70 69 70 69 70 70 69 69 69 68 69 70 70 70 71 71 71 71 70 69 70 71 73 73 69 70 70 71 70 70 71 70 69 69 68 68 69 68 68 68 67 66 66 66 65 66 66 65 65 64 63 64 62 61 62 61 62 60 59 59
68 68 69 69 69 69 69 69 69 69 68 68 68 69 68 68 69 69 70 70 70 70 71 71 71 72 71 71 70 69 68 68 69 69 68 69 69 69 69 69 67 66 66 66 67 66 66 65 66 65 65 65 64 65 64 63 64 63 62 62 62 62
67 68 68 69 68 68 68 68 68 68 68 68 68 68 68 68 69 69 69 69 70 70 70 70 70 70 71 72 69 68 68 67 67 69 69 68 67 69 70 69 68 67 66 66 66 66 65 65 65 64 64 65 65 65 64 66 64 63 63 63 61 59
67 68 68 68 69 68 68 68 68 68 67 67 67 67 67 68 68 69 69 68 69 70 70 70 71 70 71 72 72 71 69 68 68 68 67 66 68 68 69 68 67 67 66 66 66 66 66 66 66 66 66 65 64 65 65 65 64 64 63 62 61 60
66 67 68 68 68 68 67 68 68 68 68 67 66 66 67 68 68 68 69 69 69 70 70 71 71 72 74 72 72 71 69 67 67 66 67 66 66 66 65 66 66 66 65 65 66 65 63 65 65 66 66 65 65 65 65 65 65 64 65 64 64 63
67 68 68 67 68 67 68 68 68 67 67 67 67 67 66 67 67 67 68 69 69 69 70 71 71 72 73 73 72 70 70 68 68 67 67 67 66 65 65 64 64 65 65 67 65 64 64 65 65 66 66 66 65 65 65 65 66 65 65 65 64 63
67 67 67 67 67 68 67 67 67 67 67 67 67 66 66 66 66 67 67 68 69 70 70 70 71 72 72 72 72 71 70 68 67 67 67 66 66 66 65 65 65 65 65 65 65 65 65 64 65 66 65 65 65 65 65 66 66 66 65 64 64 64
MSLP
1014.90 1015.14 1015.26 1015.54 1015.86 1016.10 1016.46 1016.78 1017.10 1017.38 1017.62 1017.82 1018.02 1018.22 1018.50 1018.74 1018.94 1019.02 1019.02 1018.98 1018.90 1018.78 1018.78 1018.78 1018.66 1018.50 1018.46 1018.30 1018.18 1018.14 1018.22 1018.34 1018.42 1018.50 1018.62 1018.66 1018.78 1018.86 1018.90 1018.86 1018.86 1018.82 1018.82 1018.78 1018.74 1018.62 1018.58 1018.50 1018.38 1018.26 1018.14 1018.02 1017.90 1017.78 1017.46 1017.18 1017.42 1017.90 1018.42 1018.82 1019.14 1019.38
1014.90 1014.98 1015.14 1015.34 1015.62 1015.90 1016.34 1016.74 1017.10 1017.50 1017.86 1018.10 1018.26 1018.46 1018.70 1018.90 1019.14 1019.22 1019.22 1019.18 1019.34 1019.58 1019.34 1019.06 1018.90 1018.74 1018.62 1018.54 1018.38 1018.26 1018.22 1018.34 1018.50 1018.58 1018.70 1018.78 1018.86 1018.94 1018.98 1018.98 1018.90 1018.86 1018.90 1018.90 1018.86 1018.78 1018.70 1018.62 1018.54 1018.42 1018.34 1018.22 1018.18 1017.94 1017.38 1017.38 1017.62 1018.06 1018.54 1018.94 1019.26 1019.46
1015.06 1015.22 1015.30 1015.30 1015.42 1015.70 1016.18 1016.66 1017.02 1017.54 1017.90 1018.18 1018.38 1018.58 1018.82 1018.94 1019.18 1019.38 1019.46 1019.38 1019.50 1019.70 1020.02 1019.82 1019.38 1018.98 1018.78 1018.82 1018.82 1018.58 1018.38 1018.38 1018.54 1018.66 1018.78 1018.86 1018.94 1019.06 1019.10 1019.10 1019.02 1018.94 1018.98 1018.98 1018.86 1018.70 1018.66 1018.62 1018.58 1018.50 1018.46 1018.38 1018.26 1017.90 1017.46 1017.58 1017.90 1018.22 1018.66 1018.98 1019.30 1019.46
1015.14 1015.14 1015.18 1015.38 1015.46 1015.66 1016.06 1016.42 1016.86 1017.34 1017.94 1018.22 1018.42 1018.50 1018.62 1018.98 1018.94 1019.22 1018.98 1019.10 1019.26 1019.26 1019.50 1019.98 1020.22 1019.50 1018.82 1018.82 1019.06 1018.98 1018.74 1018.58 1018.62 1018.70 1018.82 1018.90 1019.02 1019.10 1019.14 1019.14 1019.10 1019.06 1019.06 1019.06 1018.90 1018.58 1018.50 1018.54 1018.46 1018.42 1018.42 1018.34 1018.14 1017.70 1017.62 1017.70 1018.10 1018.46 1018.74 1019.02 1019.30 1019.50
1014.74 1014.86 1015.06 1015.50 1015.78 1015.94 1015.98 1016.38 1016.90 1017.54 1018.18 1018.34 1018.42 1018.42 1018.30 1018.34 1018.62 1019.10 1018.94 1018.74 1018.74 1019.06 1019.18 1019.34 1019.34 1019.10 1018.98 1018.82 1018.98 1019.06 1018.94 1018.82 1018.74 1018.82 1018.82 1018.90 1018.98 1019.02 1019.14 1019.10 1019.10 1019.06 1018.94 1018.90 1018.78 1018.54 1018.26 1018.34 1018.22 1018.18 1018.22 1018.18 1017.86 1017.74 1017.66 1017.90 1018.22 1018.66 1018.98 1019.18 1019.38 1019.50
1014.74 1015.18 1015.38 1015.66 1015.90 1015.98 1016.06 1016.58 1017.06 1017.50 1017.82 1018.06 1018.02 1017.82 1017.74 1018.06 1018.38 1018.98 1018.90 1018.78 1018.74 1018.86 1018.94 1018.86 1018.70 1018.58 1018.66 1018.78 1018.86 1018.90 1018.94 1018.90 1018.90 1018.86 1018.82 1018.90 1018.94 1018.98 1019.06 1018.90 1018.90 1018.90 1018.78 1018.70 1018.58 1018.38 1018.02 1017.98 1018.02 1017.86 1017.86 1017.90 1017.86 1017.74 1017.78 1018.06 1018.50 1018.94 1019.30 1019.46 1019.50 1019.58
1014.98 1015.54 1015.74 1015.58 1015.78 1015.94 1016.38 1016.70 1017.10 1017.66 1018.14 1018.26 1017.82 1017.74 1017.70 1017.94 1018.14 1018.62 1018.82 1018.82 1019.14 1019.22 1019.14 1018.86 1018.70 1018.50 1018.42 1018.46 1018.74 1018.70 1018.82 1018.94 1019.10 1018.98 1018.90 1018.90 1018.82 1018.82 1018.90 1018.78 1018.70 1018.70 1018.54 1018.46 1018.34 1017.98 1017.66 1017.70 1017.62 1017.70 1017.86 1017.90 1017.78 1017.78 1017.86 1018.22 1018.62 1019.06 1019.38 1019.58 1019.66 1019.70
1015.22 1015.74 1015.98 1015.90 1015.98 1016.18 1016.62 1016.90 1017.22 1017.62 1017.78 1017.70 1017.82 1017.86 1017.70 1017.86 1018.14 1018.34 1018.54 1018.58 1018.70 1018.94 1018.94 1018.82 1018.82 1018.78 1018.58 1018.30 1018.46 1018.54 1018.58 1018.74 1018.90 1018.98 1018.86 1018.86 1018.78 1018.78 1018.82 1018.62 1018.62 1018.50 1018.38 1018.22 1017.98 1017.66 1017.66 1017.58 1017.62 1017.58 1017.86 1017.90 1017.78 1017.78 1017.94 1018.14 1018.58 1019.06 1019.38 1019.62 1019.78 1019.82
1015.34 1015.54 1015.82 1015.94 1016.18 1016.34 1016.62 1016.94 1017.26 1017.50 1017.50 1017.46 1017.82 1017.82 1017.74 1017.94 1018.14 1018.26 1018.38 1018.42 1018.50 1018.78 1018.66 1018.50 1018.70 1018.82 1018.74 1018.70 1018.62 1018.58 1018.46 1018.50 1018.98 1019.22 1018.86 1018.90 1018.70 1018.74 1018.70 1018.50 1018.54 1018.46 1018.14 1017.98 1017.74 1017.74 1017.62 1017.74 1017.74 1017.78 1017.94 1018.02 1017.90 1017.90 1017.98 1018.10 1018.54 1018.90 1019.26 1019.54 1019.74 1019.90
1015.62 1015.66 1015.78 1015.94 1016.10 1016.22 1016.46 1016.86 1017.10 1017.22 1017.26 1017.38 1017.74 1017.74 1017.66 1018.02 1018.22 1018.42 1018.46 1018.30 1018.34 1018.54 1018.54 1018.46 1018.46 1018.46 1018.66 1018.62 1018.50 1018.54 1018.42 1018.50 1018.58 1019.02 1019.22 1018.90 1018.62 1018.62 1018.50 1018.42 1018.38 1018.34 1018.30 1018.06 1017.98 1017.74 1017.70 1017.86 1017.94 1017.90 1017.90 1017.98 1018.06 1018.02 1018.02 1018.18 1018.26 1018.66 1019.10 1019.46 1019.78 1019.90
1015.78 1015.86 1015.86 1016.02 1016.02 1016.14 1016.34 1016.70 1016.90 1017.06 1017.06 1017.14 1017.38 1017.54 1017.70 1017.82 1017.98 1018.18 1018.22 1018.14 1018.22 1018.42 1018.62 1018.54 1018.46 1018.50 1018.66 1018.78 1018.62 1018.42 1018.54 1018.58 1018.58 1018.54 1019.02 1019.14 1018.50 1018.50 1018.30 1018.30 1018.38 1018.58 1018.50 1018.38 1018.02 1017.66 1017.74 1018.02 1018.06 1018.02 1017.90 1017.94 1018.06 1017.94 1018.02 1017.94 1018.02 1018.34 1018.98 1019.46 1019.70 1019.90
1015.82 1015.86 1015.98 1016.06 1016.06 1016.30 1016.50 1016.66 1016.90 1016.90 1016.98 1017.06 1017.34 1017.62 1017.78 1017.82 1017.86 1017.74 1017.78 1018.06 1018.22 1018.38 1018.42 1018.42 1018.34 1018.38 1018.46 1018.54 1018.58 1018.54 1018.70 1018.86 1018.86 1018.62 1018.74 1019.38 1018.90 1018.34 1018.26 1018.18 1018.18 1018.26 1018.46 1018.34 1018.30 1017.98 1017.66 1017.90 1018.14 1018.06 1017.94 1018.02 1017.82 1017.90 1017.94 1017.94 1017.98 1018.14 1018.94 1019.22 1019.54 1019.78
1015.54 1015.78 1015.94 1016.06 1016.06 1016.14 1016.26 1016.38 1016.66 1016.82 1016.90 1016.98 1017.22 1017.46 1017.70 1017.78 1017.70 1017.58 1017.62 1017.78 1017.86 1018.02 1018.14 1018.22 1018.22 1018.26 1018.30 1018.38 1018.42 1018.62 1018.78 1018.98 1018.98 1018.82 1018.74 1019.14 1019.50 1018.42 1018.34 1018.38 1018.30 1018.22 1018.34 1018.34 1018.46 1018.34 1017.74 1017.78 1018.10 1018.02 1017.98 1018.06 1017.90 1017.98 1017.82 1017.90 1017.94 1018.14 1018.62 1018.94 1019.26 1019.66
1015.58 1015.74 1015.78 1015.74 1015.74 1015.82 1015.90 1016.10 1016.26 1016.46 1016.58 1016.74 1016.90 1017.18 1017.50 1017.42 1017.26 1017.38 1017.54 1017.70 1017.78 1017.78 1017.94 1017.98 1018.06 1018.30 1018.34 1018.42 1018.42 1018.50 1018.62 1018.78 1018.82 1018.74 1018.42 1018.42 1019.14 1018.46 1018.46 1018.54 1018.42 1018.34 1018.50 1018.54 1018.74 1018.58 1018.10 1018.18 1018.14 1018.06 1018.10 1018.02 1018.06 1018.02 1017.90 1017.98 1017.98 1018.10 1018.38 1018.70 1019.06 1019.46
1015.46 1015.58 1015.58 1015.66 1015.70 1015.74 1015.78 1015.94 1016.10 1016.26 1016.34 1016.38 1016.54 1016.78 1017.22 1017.14 1017.22 1017.34 1017.38 1017.58 1017.66 1017.70 1017.70 1017.78 1017.78 1017.98 1018.14 1018.22 1018.38 1018.54 1018.58 1018.54 1018.54 1018.82 1018.82 1018.30 1018.34 1018.30 1018.38 1018.50 1018.38 1018.50 1018.50 1018.66 1018.70 1018.50 1018.30 1018.22 1018.30 1018.38 1018.34 1018.18 1018.26 1018.10 1017.98 1018.06 1017.98 1018.10 1018.26 1018.58 1018.86 1019.22
1015.38 1015.54 1015.50 1015.46 1015.54 1015.58 1015.70 1015.90 1015.94 1016.02 1016.14 1016.22 1016.34 1016.54 1016.90 1017.18 1017.26 1017.30 1017.26 1017.42 1017.42 1017.46 1017.50 1017.50 1017.58 1017.74 1017.94 1018.02 1018.26 1018.46 1018.46 1018.42 1018.50 1018.66 1018.66 1018.66 1018.50 1018.58 1018.50 1018.42 1018.34 1018.38 1018.66 1018.78 1018.74 1018.66 1018.38 1018.38 1018.26 1018.42 1018.30 1018.26 1018.26 1018.22 1018.22 1018.18 1018.14 1018.14 1018.26 1018.50 1018.90 1019.06
1015.50 1015.50 1015.50 1015.50 1015.58 1015.74 1015.82 1016.02 1016.02 1015.98 1016.02 1016.18 1016.42 1016.46 1016.46 1017.26 1017.58 1017.26 1017.10 1017.22 1017.26 1017.38 1017.42 1017.42 1017.46 1017.58 1017.82 1017.90 1017.98 1018.18 1018.30 1018.34 1018.34 1018.42 1018.38 1018.42 1018.50 1018.54 1018.50 1018.42 1018.38 1018.30 1018.42 1018.78 1018.86 1018.66 1018.42 1018.46 1018.62 1018.54 1018.34 1018.38 1018.34 1018.34 1018.42 1018.34 1018.22 1018.14 1018.22 1018.58 1018.90 1019.02
1015.38 1015.42 1015.58 1015.62 1015.70 1015.78 1015.86 1015.90 1015.98 1015.94 1016.02 1016.34 1016.62 1016.42 1016.14 1016.50 1017.26 1017.14 1016.86 1017.10 1017.30 1017.50 1017.62 1017.54 1017.46 1017.38 1017.54 1017.58 1017.78 1018.02 1018.10 1018.18 1018.22 1018.30 1018.34 1018.30 1018.38 1018.38 1018.42 1018.38 1018.50 1018.30 1018.38 1018.66 1018.74 1018.62 1018.70 1018.78 1019.02 1019.58 1019.22 1018.74 1018.62 1018.46 1018.46 1018.42 1018.22 1018.18 1018.26 1018.58 1018.86 1019.02
1015.42 1015.54 1015.70 1015.66 1015.70 1015.78 1015.82 1015.90 1015.94 1016.02 1016.22 1016.50 1016.38 1016.18 1015.94 1015.94 1016.30 1016.98 1017.30 1017.30 1017.30 1017.58 1017.74 1017.58 1017.38 1017.18 1017.30 1017.46 1017.66 1017.82 1017.94 1017.94 1017.94 1018.10 1018.22 1018.34 1018.38 1018.38 1018.34 1018.34 1018.54 1018.46 1018.26 1018.46 1018.62 1018.70 1018.90 1018.98 1019.14 1019.42 1019.98 1019.30 1019.06 1018.70 1018.54 1018.38 1018.30 1018.34 1018.22 1018.26 1018.62 1018.74
1015.54 1015.58 1015.66 1015.70 1015.70 1015.90 1015.94 1016.14 1016.46 1016.62 1016.90 1016.82 1016.58 1016.34 1016.06 1015.94 1015.94 1016.58 1016.78 1016.94 1017.06 1017.22 1017.18 1016.98 1016.86 1016.82 1017.02 1017.14 1017.26 1017.30 1017.46 1017.54 1017.62 1017.78 1018.02 1018.22 1018.26 1018.26 1018.34 1018.42 1018.50 1018.54 1018.66 1018.74 1018.70 1018.78 1018.74 1019.18 1019.42 1019.82 1020.66 1020.66 1019.86 1019.62 1018.78 1018.62 1018.50 1018.42 1018.18 1018.18 1018.30 1018.42
1015.66 1015.54 1015.70 1015.86 1015.90 1016.02 1016.30 1016.34 1016.42 1016.74 1016.70 1016.46 1016.50 1016.34 1016.10 1015.86 1015.86 1016.06 1016.46 1016.58 1017.02 1017.62 1017.34 1016.94 1016.78 1016.74 1016.94 1017.02 1017.02 1017.02 1017.14 1017.26 1017.26 1017.42 1017.62 1017.70 1017.70 1017.78 1017.86 1018.02 1018.18 1018.34 1018.62 1018.90 1019.02 1018.90 1018.86 1019.06 1019.54 1019.94 1020.18 1020.38 1020.22 1020.02 1019.54 1018.94 1018.74 1018.54 1018.30 1018.18 1018.18 1018.34
1015.82 1015.82 1015.82 1015.86 1016.02 1016.06 1015.98 1016.26 1016.58 1016.58 1016.42 1016.18 1016.10 1016.18 1016.14 1015.86 1015.82 1015.86 1015.86 1015.98 1016.30 1017.14 1016.98 1016.74 1016.62 1016.62 1016.78 1016.90 1016.98 1017.06 1017.06 1017.10 1017.02 1017.22 1017.30 1017.18 1017.26 1017.38 1017.54 1017.78 1017.94 1018.26 1018.26 1018.62 1018.94 1018.78 1018.82 1019.10 1019.90 1019.98 1020.46 1020.90 1020.62 1020.14 1019.30 1019.30 1019.10 1018.74 1018.34 1018.22 1018.26 1018.34
1016.02 1016.02 1016.02 1015.94 1015.90 1016.10 1015.98 1015.90 1016.02 1016.14 1016.22 1016.18 1015.62 1015.54 1015.62 1015.54 1015.50 1015.62 1015.58 1015.58 1015.66 1016.02 1016.42 1016.46 1016.38 1016.42 1016.54 1016.62 1016.70 1016.86 1016.90 1016.82 1016.86 1016.94 1017.14 1017.26 1017.18 1017.30 1017.34 1017.58 1017.78 1018.02 1018.34 1018.30 1018.54 1018.50 1018.66 1018.74 1019.50 1019.42 1019.70 1020.94 1020.98 1020.86 1020.02 1019.74 1019.30 1019.02 1018.70 1018.46 1018.42 1018.50
1016.30 1016.14 1016.14 1015.98 1015.94 1015.78 1015.78 1015.70 1015.66 1015.74 1015.74 1015.82 1015.94 1015.58 1015.46 1015.30 1015.38 1015.54 1015.70 1015.50 1015.50 1015.58 1015.78 1016.06 1015.98 1016.10 1016.22 1016.30 1016.46 1016.66 1016.70 1016.74 1016.70 1016.62 1016.78 1017.10 1017.18 1017.18 1017.18 1017.26 1017.50 1017.70 1017.90 1018.50 1018.46 1018.42 1018.26 1018.54 1018.82 1019.34 1020.58 1020.50 1020.26 1020.38 1020.82 1020.38 1019.94 1019.26 1018.78 1018.74 1018.70 1018.74
1016.46 1016.38 1016.14 1016.14 1016.02 1015.86 1015.86 1015.82 1015.66 1015.62 1015.58 1015.74 1015.66 1015.66 1015.66 1015.62 1015.42 1015.38 1015.50 1015.50 1015.46 1015.30 1015.42 1015.74 1015.70 1015.78 1015.94 1016.14 1016.26 1016.38 1016.50 1016.62 1016.66 1016.62 1016.70 1016.86 1016.94 1016.82 1016.74 1016.74 1016.98 1017.34 1017.62 1017.86 1018.22 1018.10 1018.10 1018.18 1018.50 1018.30 1018.78 1019.94 1020.58 1020.78 1020.34 1019.58 1019.58 1019.58 1018.94 1019.06 1018.86 1018.78
1016.66 1016.50 1016.38 1016.26 1016.10 1016.02 1016.06 1016.14 1016.14 1016.30 1016.50 1016.38 1016.46 1016.30 1016.38 1016.22 1015.94 1015.86 1015.66 1015.22 1015.10 1015.06 1015.18 1015.34 1015.62 1015.58 1015.66 1015.86 1016.06 1016.10 1016.26 1016.50 1016.58 1016.58 1016.62 1016.66 1016.66 1016.62 1016.54 1016.54 1016.58 1016.82 1017.18 1017.26 1017.50 1017.86 1018.06 1017.86 1017.94 1018.18 1018.22 1018.18 1018.50 1019.26 1019.58 1019.42 1019.62 1020.38 1019.02 1018.82 1018.78 1018.66
1016.90 1016.78 1016.62 1016.46 1016.26 1016.14 1016.18 1016.10 1016.14 1016.18 1016.14 1016.30 1016.46 1016.10 1015.74 1015.58 1015.58 1015.46 1015.30 1015.38 1015.26 1015.14 1015.14 1015.30 1015.42 1015.30 1015.42 1015.62 1015.82 1015.94 1016.14 1016.30 1016.38 1016.38 1016.38 1016.50 1016.58 1016.50 1016.42 1016.30 1016.18 1016.38 1016.62 1016.86 1017.22 1017.70 1017.66 1017.74 1017.82 1017.90 1017.98 1018.02 1018.18 1018.58 1018.70 1019.18 1019.78 1019.46 1020.14 1019.30 1018.90 1018.86
1016.98 1016.94 1016.78 1016.62 1016.54 1016.38 1016.46 1016.26 1016.18 1016.10 1016.02 1016.06 1016.10 1016.14 1015.78 1015.54 1015.22 1015.18 1015.34 1015.30 1015.22 1015.18 1015.14 1015.10 1015.10 1015.06 1015.14 1015.30 1015.50 1015.66 1015.82 1016.10 1016.26 1016.34 1016.50 1016.50 1016.42 1016.34 1016.34 1016.18 1016.02 1016.02 1016.18 1016.42 1016.74 1017.06 1017.26 1017.30 1017.70 1017.78 1017.70 1018.02 1018.10 1018.22 1018.38 1018.58 1018.42 1018.94 1019.38 1019.90 1019.62 1018.82
1017.30 1017.18 1017.10 1016.94 1016.82 1016.70 1016.62 1016.46 1016.34 1016.14 1016.18 1015.90 1015.74 1015.74 1015.50 1015.26 1015.26 1015.14 1015.34 1015.22 1015.22 1014.98 1014.82 1014.78 1014.78 1014.98 1015.14 1015.10 1015.38 1015.46 1015.58 1015.78 1015.94 1016.06 1016.18 1016.22 1016.18 1016.18 1016.26 1016.30 1016.26 1016.18 1016.14 1016.14 1016.22 1016.34 1016.66 1016.90 1017.10 1017.34 1017.58 1017.90 1018.06 1018.30 1018.38 1018.38 1018.38 1018.62 1019.74 1020.10 1019.38 1019.34
1017.66 1017.54 1017.42 1017.30 1017.14 1016.98 1016.82 1016.62 1016.54 1016.46 1016.46 1016.26 1015.94 1015.70 1015.50 1015.50 1015.42 1015.30 1015.42 1015.30 1015.22 1015.14 1014.98 1014.86 1014.90 1015.14 1015.22 1015.06 1015.30 1015.34 1015.42 1015.46 1015.54 1015.62 1015.82 1015.90 1015.90 1015.98 1015.98 1016.06 1016.02 1016.02 1015.86 1015.94 1015.94 1015.98 1016.14 1016.26 1016.46 1016.66 1016.90 1017.26 1017.86 1018.10 1018.54 1018.70 1018.50 1018.58 1018.90 1019.02 1019.38 1019.14
1017.78 1017.62 1017.50 1017.46 1017.30 1017.22 1017.02 1016.86 1016.82 1016.74 1016.62 1016.54 1016.34 1016.14 1016.02 1015.82 1015.62 1015.58 1015.62 1015.58 1015.50 1015.30 1015.10 1015.02 1014.78 1014.86 1015.02 1014.98 1015.18 1015.26 1015.18 1015.10 1015.06 1015.22 1015.46 1015.66 1015.66 1015.66 1015.62 1015.70 1015.70 1015.66 1015.66 1015.70 1015.74 1015.78 1015.90 1015.98 1016.10 1016.38 1016.62 1016.86 1017.10 1017.34 1017.78 1018.18 1018.10 1018.18 1018.50 1018.86 1019.10 1019.10
1017.94 1017.86 1017.70 1017.58 1017.46 1017.38 1017.26 1017.14 1016.98 1016.90 1016.86 1016.74 1016.58 1016.46 1016.46 1016.34 1016.06 1016.02 1015.78 1015.62 1015.42 1015.30 1015.14 1014.94 1014.90 1014.86 1015.10 1014.94 1015.18 1015.22 1015.06 1015.02 1015.02 1015.06 1015.34 1015.30 1015.38 1015.30 1015.26 1015.26 1015.34 1015.46 1015.50 1015.42 1015.46 1015.58 1015.70 1015.86 1015.94 1016.06 1016.26 1016.42 1016.58 1016.70 1017.06 1017.34 1017.38 1017.58 1017.94 1018.14 1018.50 1018.66
1018.14 1017.94 1017.86 1017.74 1017.70 1017.58 1017.46 1017.34 1017.22 1017.10 1017.02 1016.90 1016.86 1016.70 1016.58 1016.42 1016.22 1016.18 1015.98 1015.82 1015.58 1015.42 1015.14 1015.06 1014.86 1014.90 1014.86 1014.82 1014.94 1015.26 1015.30 1015.22 1015.14 1015.06 1015.22 1015.38 1015.34 1015.10 1014.86 1014.82 1014.90 1015.14 1015.26 1015.30 1015.30 1015.38 1015.46 1015.42 1015.54 1015.78 1015.90 1015.94 1016.14 1016.38 1016.58 1016.62 1017.02 1017.34 1017.34 1017.58 1018.46 1019.10
1018.22 1017.98 1017.90 1017.78 1017.70 1017.78 1017.70 1017.54 1017.34 1017.26 1017.18 1017.06 1017.02 1016.90 1016.74 1016.58 1016.38 1016.22 1016.06 1015.98 1015.78 1015.46 1015.22 1015.02 1014.78 1014.66 1014.50 1014.46 1014.46 1014.54 1014.86 1014.98 1015.06 1014.94 1015.02 1015.22 1014.94 1014.90 1014.70 1014.70 1014.74 1014.82 1014.98 1015.02 1015.10 1014.98 1014.98 1015.06 1015.22 1015.26 1015.34 1015.70 1015.82 1015.90 1016.02 1016.30 1016.70 1016.98 1017.14 1017.42 1017.90 1018.14
1018.58 1018.30 1018.06 1017.98 1017.82 1017.86 1017.78 1017.58 1017.42 1017.34 1017.26 1017.18 1017.14 1017.02 1016.86 1016.62 1016.42 1016.30 1016.10 1015.98 1015.74 1015.46 1015.30 1014.98 1014.74 1014.38 1014.10 1014.18 1014.26 1014.34 1014.50 1014.62 1014.54 1014.54 1014.62 1014.66 1014.70 1014.86 1015.18 1015.14 1014.58 1014.58 1014.86 1014.82 1014.82 1014.86 1015.02 1015.02 1015.10 1015.06 1015.14 1015.18 1015.30 1015.46 1015.62 1015.86 1016.14 1016.42 1016.42 1016.54 1016.86 1017.34
1018.54 1018.34 1018.22 1018.22 1018.06 1017.98 1017.74 1017.54 1017.46 1017.38 1017.26 1017.18 1017.14 1017.06 1016.98 1016.78 1016.62 1016.50 1016.22 1015.98 1015.74 1015.46 1015.26 1015.02 1014.66 1014.34 1014.06 1013.98 1014.06 1014.14 1014.06 1014.18 1014.18 1014.14 1014.14 1014.22 1014.38 1014.50 1014.74 1015.18 1014.74 1014.42 1014.46 1014.38 1014.54 1014.62 1014.58 1014.74 1014.82 1014.70 1014.78 1014.82 1015.02 1015.06 1015.10 1015.38 1015.62 1015.82 1015.94 1015.98 1016.26 1016.70
1018.74 1018.62 1018.50 1018.34 1018.14 1017.98 1017.90 1017.78 1017.62 1017.50 1017.34 1017.22 1017.18 1017.18 1017.14 1017.02 1016.86 1016.62 1016.42 1016.06 1015.74 1015.38 1015.10 1014.94 1014.74 1014.42 1014.22 1013.98 1013.90 1013.86 1013.90 1013.94 1013.94 1013.90 1013.90 1013.98 1014.02 1014.18 1014.58 1014.66 1014.34 1014.18 1014.18 1014.22 1014.38 1014.26 1014.18 1014.42 1014.34 1014.38 1014.50 1014.58 1014.70 1014.70 1014.78 1014.94 1015.18 1015.34 1015.42 1015.66 1015.90 1016.26
Wind_Speed
9 11 8 8 7 7 8 9 7 7 7 6 7 7 6 6 6 6 5 5 5 5 3 3 4 4 8 4 4 5 6 4 3 3 3 3 5 6 7 9 9 9 8 7 5 2 1 4 7 8 10 10 12 7 6 5 7 8 8 7 7 5
6 8 8 6 6 6 7 7 6 6 5 5 5 6 4 3 3 3 3 3 1 5 5 2 2 5 3 4 4 8 7 5 4 3 2 4 5 5 7 8 9 10 10 8 8 2 1 4 7 9 8 9 7 6 2 5 7 8 9 7 6 7
5 7 5 5 6 7 9 6 6 6 4 5 4 4 3 3 1 1 1 2 5 3 5 8 3 4 3 4 3 5 7 6 5 4 4 4 5 5 6 7 8 9 10 11 7 3 4 2 3 8 8 6 3 7 0 4 8 7 8 7 5 10
7 5 5 4 5 6 7 5 5 6 4 3 3 3 3 5 0 1 3 2 3 3 2 3 9 7 1 4 3 3 3 5 6 6 7 5 5 5 6 6 6 8 6 5 5 5 5 4 4 4 4 4 6 1 1 5 7 7 6 8 7 10
6 5 6 5 5 4 6 6 6 6 7 5 4 4 3 2 4 3 2 4 5 4 4 2 3 1 3 3 4 3 2 2 2 4 7 4 3 4 4 5 4 5 4 5 6 5 5 5 5 5 6 6 3 3 3 7 7 6 6 6 5 8
6 6 5 5 4 4 6 6 5 6 7 5 2 4 6 4 4 3 5 3 4 5 5 5 4 4 3 1 2 4 3 2 2 3 6 4 4 4 5 5 5 5 5 4 7 7 5 5 6 4 3 1 1 1 3 8 8 7 6 4 5 11
6 5 4 4 5 3 5 5 5 7 5 4 4 4 5 6 5 5 4 4 3 0 1 3 5 4 4 3 2 2 4 3 2 3 4 5 6 5 5 5 4 5 5 6 7 10 3 3 3 4 3 3 4 1 6 7 8 7 6 5 5 11
4 6 5 4 4 4 6 5 6 7 5 6 5 4 5 4 5 5 5 4 4 4 4 4 4 1 1 3 4 1 0 1 4 5 4 5 4 4 6 5 4 6 7 8 8 1 3 1 1 2 3 0 1 3 4 7 8 8 7 5 5 7
3 4 6 4 4 4 6 5 5 5 6 5 4 5 4 3 3 3 3 4 3 3 2 3 3 3 1 2 1 1 2 3 4 6 4 6 5 5 6 5 4 6 5 2 1 3 1 2 0 2 2 3 1 3 2 5 9 9 7 6 5 7
5 4 4 3 3 3 5 6 7 5 5 6 5 3 4 4 4 4 4 4 3 3 3 3 3 2 3 3 2 2 1 2 4 2 8 4 4 5 5 3 4 2 4 3 3 2 1 2 1 2 2 2 2 1 2 4 4 8 8 7 6 7
7 6 5 4 3 4 5 5 5 5 5 5 5 5 4 4 5 5 6 5 4 4 3 3 3 3 3 3 2 2 1 0 2 3 3 8 5 4 4 4 2 2 3 3 3 1 4 3 2 2 2 2 4 3 3 3 3 8 9 8 6 5
7 6 5 6 5 6 5 6 6 5 4 4 5 4 4 4 4 4 5 6 6 5 5 4 4 3 3 3 3 2 1 3 4 3 3 6 7 4 4 2 1 1 1 2 3 5 3 4 3 4 2 2 3 4 3 3 3 7 9 8 7 5
6 6 6 7 5 5 5 5 5 4 5 5 6 6 5 5 5 5 4 5 5 6 4 4 3 2 2 2 3 3 4 4 3 0 2 3 12 4 2 0 1 1 1 2 3 4 5 4 4 3 3 3 2 1 2 3 3 5 9 8 7 6
6 6 5 4 4 3 4 3 4 4 4 5 5 5 5 5 5 4 4 5 5 4 4 4 4 4 3 3 3 4 3 3 4 5 4 5 9 5 3 2 2 1 1 0 3 5 4 3 2 1 2 2 1 2 2 3 3 4 7 8 8 7
5 5 5 5 5 3 3 3 4 3 5 5 5 6 5 5 4 2 3 4 5 5 5 5 4 4 4 4 3 3 3 3 3 2 5 6 6 3 3 4 2 2 1 2 3 4 5 3 3 3 2 2 2 2 1 2 0 2 6 7 8 8
6 5 4 4 3 3 3 1 2 5 4 4 4 5 5 4 2 3 4 4 5 5 5 5 5 3 3 4 4 3 3 4 4 5 6 5 3 4 4 4 3 3 3 2 4 4 5 5 3 3 3 3 2 2 1 1 3 1 6 6 3 4
4 4 3 3 3 3 3 3 3 2 3 3 1 2 3 9 5 6 4 5 5 5 5 4 4 4 3 3 3 3 3 3 3 4 5 4 2 4 4 4 5 4 4 4 5 8 4 2 2 2 2 3 2 1 2 3 3 3 6 6 6 4
4 5 3 3 2 2 2 2 1 2 1 1 2 5 3 4 8 6 6 5 6 4 3 2 3 4 4 4 3 3 3 3 3 3 3 3 4 3 4 4 4 4 5 4 5 2 2 2 4 4 7 0 1 2 1 2 3 3 3 6 6 6
3 1 2 2 2 2 1 1 2 2 2 3 2 4 2 2 4 5 3 3 6 4 3 3 4 5 5 4 4 4 4 3 3 3 3 3 3 3 4 3 3 3 1 1 1 2 3 2 2 1 8 2 1 1 2 1 0 2 2 4 8 7
3 1 2 1 1 2 2 3 2 1 2 4 5 2 3 3 2 4 4 6 4 3 2 2 5 6 6 5 4 4 5 4 4 3 4 4 4 4 4 4 4 3 1 1 1 1 2 3 3 1 5 6 4 9 2 2 2 4 3 3 3 5
3 2 1 0 1 1 2 2 1 1 3 3 3 5 3 1 2 4 4 4 7 6 5 5 6 5 6 6 6 5 5 5 5 4 4 5 5 5 4 4 3 2 2 2 1 1 0 3 3 3 1 3 4 7 4 4 3 4 3 3 4 3
4 2 2 2 3 3 2 1 2 1 2 3 1 2 1 2 1 1 2 3 6 8 8 7 5 5 5 6 5 5 5 5 5 4 4 4 4 4 4 3 3 4 2 3 2 3 2 4 1 4 2 3 6 6 3 2 4 5 4 3 3 4
2 3 3 3 3 2 2 2 2 1 2 2 2 0 1 1 2 2 3 3 2 8 10 7 7 4 5 6 6 6 6 5 6 6 6 6 5 5 5 4 5 5 4 3 2 2 2 4 3 5 4 1 4 3 2 2 3 4 5 0 1 1
6 4 2 2 3 3 3 2 2 2 2 2 2 2 2 2 2 2 3 3 3 3 5 7 6 7 5 6 6 6 5 5 5 4 5 6 6 7 6 6 5 5 4 4 4 5 6 5 3 7 5 6 1 2 3 6 5 4 3 2 3 4
5 5 4 4 4 4 4 3 2 2 2 2 2 3 2 2 2 2 1 2 3 3 4 6 7 7 6 7 7 6 6 6 5 5 5 6 7 8 7 7 8 7 7 7 6 4 5 6 7 6 5 4 1 3 3 0 5 3 3 3 5 7
7 6 6 7 7 4 4 4 4 3 3 2 2 1 2 3 2 2 2 1 2 2 3 3 5 6 6 6 6 6 6 6 6 5 6 7 7 7 8 8 8 8 9 8 7 6 5 5 7 8 8 3 1 2 3 0 3 3 2 4 3 8
6 6 7 8 9 7 6 4 4 4 3 3 4 2 2 2 2 2 2 2 3 2 2 1 3 6 6 6 6 6 6 6 6 5 5 6 6 7 6 8 7 8 8 7 6 7 8 6 4 6 7 7 3 3 2 3 4 2 2 3 4 4
7 7 7 8 8 9 8 6 6 5 4 3 3 3 3 3 3 3 3 3 3 3 3 4 4 4 4 6 6 5 6 5 6 6 5 7 7 7 5 6 7 8 8 8 9 9 8 6 8 6 7 7 4 4 4 5 2 2 1 3 6 4
8 8 8 10 9 9 8 8 7 6 6 4 4 4 4 4 3 2 3 2 3 3 3 4 5 3 4 6 5 5 6 6 6 7 7 7 7 7 9 9 8 8 9 9 9 9 8 8 8 6 7 7 6 5 5 6 4 4 3 5 5 7
7 5 6 8 8 8 9 7 7 8 9 8 7 7 5 4 4 3 3 4 2 3 4 4 3 5 4 4 2 3 3 5 6 7 6 8 8 9 10 11 10 10 10 11 8 9 10 8 8 7 7 6 7 6 4 5 5 5 5 6 4 5
6 5 5 6 7 8 8 8 7 8 9 10 10 8 8 7 6 6 5 4 3 4 4 5 5 1 7 7 6 5 6 7 7 7 8 7 8 8 8 9 10 11 11 13 9 9 9 8 7 8 8 8 8 9 9 9 8 7 6 5 5 6
7 7 7 6 7 7 6 7 7 8 9 9 9 8 9 8 8 8 8 7 3 3 4 4 4 3 2 5 3 4 4 6 6 5 5 6 6 7 8 9 9 9 11 12 10 9 9 10 11 8 9 8 8 8 7 8 6 8 8 6 5 6
5 4 5 5 7 7 7 7 8 8 8 7 8 9 9 9 8 7 7 8 8 6 5 5 4 4 3 4 6 6 6 6 5 6 5 6 7 10 9 8 8 10 10 11 10 10 10 12 12 10 10 9 8 8 9 7 6 7 7 6 4 5
9 8 7 6 5 6 7 7 7 7 7 8 8 8 8 7 7 7 7 8 8 8 7 6 6 5 4 4 3 5 5 6 6 7 5 7 9 9 9 7 7 9 10 8 9 12 12 12 11 12 10 9 9 9 9 7 7 7 8 7 7 8
8 7 7 7 5 6 4 5 6 6 7 7 7 8 8 8 8 8 7 8 7 8 8 8 8 8 6 4 3 1 2 4 6 6 6 6 7 8 7 9 8 7 7 8 9 9 9 12 12 12 11 10 10 9 8 8 8 8 8 8 7 5
7 7 8 8 7 6 5 4 4 5 5 4 5 6 6 7 8 9 10 8 8 8 8 9 9 8 7 5 4 3 3 4 5 6 6 7 7 8 6 8 8 8 10 9 9 11 11 12 13 14 13 11 9 9 9 8 8 8 8 7 6 6
9 8 7 7 6 6 7 7 7 8 8 6 5 7 7 9 9 9 9 10 9 8 8 8 9 9 9 7 6 5 5 4 4 5 6 5 6 7 7 8 9 9 9 6 7 10 10 11 12 12 10 12 11 8 8 8 7 7 7 6 6 6
Wind_Direction
142 141 142 135 132 138 130 134 121 110 117 111 97 96 83 92 118 129 136 149 163 166 159 142 163 152 149 161 179 139 146 114 109 109 143 160 146 143 145 138 137 133 130 129 133 134 287 310 303 313 309 311 316 320 279 99 97 96 99 101 101 98
143 140 134 140 137 134 133 145 147 131 133 115 112 106 100 146 159 138 161 169 86 0 338 176 222 150 186 163 180 154 149 125 121 134 158 161 162 160 153 154 148 145 145 148 157 167 218 265 275 279 289 294 300 286 335 66 100 101 97 97 102 105
106 96 120 136 136 123 135 141 145 140 143 136 139 136 147 197 145 13 44 330 56 24 324 322 316 179 172 177 167 188 152 135 126 146 168 173 172 175 176 173 165 154 158 174 181 176 199 192 231 254 266 281 277 261 284 90 79 86 90 98 102 124
103 120 118 71 89 127 136 129 114 140 109 115 126 151 93 57 105 180 183 133 139 169 207 296 319 288 170 121 132 210 183 142 141 154 175 171 180 191 197 194 181 172 175 197 232 182 186 191 200 198 224 243 249 199 179 99 93 93 109 111 116 128
136 134 113 90 90 55 111 105 95 80 76 67 39 72 91 187 184 149 168 200 176 189 157 155 231 252 298 134 162 185 214 210 180 173 172 194 177 192 199 204 196 199 212 217 233 245 188 184 212 194 210 222 209 236 76 86 95 89 85 95 116 126
147 101 88 106 103 125 110 111 100 96 100 95 153 166 156 207 177 160 207 196 210 190 159 170 202 191 171 117 186 168 192 218 225 214 173 213 191 179 211 216 200 204 222 218 235 244 207 185 208 197 118 125 240 208 131 92 90 95 98 113 122 115
110 113 122 128 134 123 89 83 91 91 93 142 193 179 152 181 184 173 219 192 220 285 214 192 208 204 152 147 209 175 178 188 235 231 177 228 201 175 215 213 204 212 217 227 243 239 165 198 231 130 140 186 221 148 83 107 104 109 109 107 124 131
110 128 138 132 110 96 90 106 106 114 141 165 159 170 182 164 160 184 196 207 193 164 202 199 215 267 230 158 171 201 125 166 197 226 203 233 212 178 221 214 207 223 227 228 222 206 209 144 340 101 128 54 278 106 143 120 118 118 128 126 132 136
91 100 96 104 111 93 108 116 124 140 160 165 150 182 173 121 153 176 192 212 218 162 202 226 203 189 204 239 165 226 132 107 4 300 220 231 201 206 220 203 202 238 251 265 279 205 165 110 40 63 115 211 44 55 65 103 124 132 131 134 133 142
123 118 106 95 99 121 120 133 150 155 172 163 168 166 173 163 176 181 192 204 208 178 190 207 213 203 191 200 184 210 144 123 149 230 298 246 203 234 229 222 225 287 283 223 224 246 65 122 164 173 209 112 116 125 99 128 153 132 130 130 127 140
136 144 140 143 156 137 144 139 154 162 175 167 141 154 176 188 184 185 179 186 200 180 187 200 205 198 212 191 213 186 106 269 163 158 275 281 226 234 235 227 130 219 278 320 295 334 165 159 202 221 203 160 185 155 193 155 172 133 125 126 136 145
142 149 154 150 159 159 166 158 158 157 161 150 134 157 184 196 200 205 179 175 181 187 192 199 185 188 191 178 168 159 166 228 229 198 157 298 275 237 236 234 29 95 359 334 337 303 246 150 195 217 172 223 202 130 181 169 205 116 133 132 139 138
128 144 161 161 159 166 167 155 149 154 154 164 166 165 181 198 200 204 184 184 182 180 178 185 198 184 171 159 152 170 190 212 263 298 165 237 276 238 255 33 210 75 16 7 336 287 256 160 225 201 178 212 96 241 205 145 106 124 130 132 129 134
149 163 166 164 162 170 161 148 143 150 162 172 176 171 174 194 204 188 188 191 193 199 186 186 187 155 190 155 164 190 195 182 223 230 217 198 243 230 204 228 229 131 142 103 272 269 268 223 195 213 254 147 184 190 233 145 154 120 131 139 135 145
158 155 168 169 179 166 156 165 149 152 175 189 181 183 161 172 180 213 187 179 179 198 196 198 186 167 161 164 168 191 205 215 250 267 268 241 230 214 217 222 209 192 162 185 246 251 281 251 193 197 206 183 190 198 262 131 334 131 124 121 146 152
154 161 180 177 155 173 147 167 187 175 165 201 193 190 146 132 174 207 202 171 193 189 201 198 176 167 154 164 168 170 195 214 206 224 235 253 231 237 225 219 203 194 186 221 250 258 246 240 208 195 195 194 180 177 159 108 183 175 127 110 104 123
135 166 185 163 179 165 173 183 209 244 189 184 238 289 164 141 184 222 201 164 182 192 201 209 193 164 177 175 173 177 186 201 219 237 206 212 225 256 263 222 199 197 188 195 221 228 224 273 332 306 192 194 144 174 183 195 181 237 136 134 144 151
150 167 180 190 186 194 172 201 221 222 263 201 221 241 216 165 149 209 211 172 171 174 202 204 195 173 172 196 188 200 193 196 193 247 230 208 216 235 254 260 240 207 191 205 227 235 176 47 62 314 284 6 259 161 218 211 159 240 164 142 143 153
118 112 132 190 205 223 226 191 223 222 209 301 235 230 232 234 161 143 175 242 157 143 189 193 206 184 171 191 189 193 192 203 188 204 230 224 220 235 245 266 269 249 277 222 163 52 60 94 114 302 281 291 319 274 201 233 224 281 202 155 155 162
73 68 180 226 190 224 213 201 189 351 307 210 235 260 255 235 234 101 161 172 131 103 265 199 208 213 180 182 191 197 189 195 201 194 210 209 218 216 225 236 242 233 237 58 77 122 139 119 67 61 344 334 328 293 234 203 239 241 200 169 159 170
72 35 351 275 223 223 248 280 59 188 247 241 209 224 202 240 202 157 172 189 135 126 234 225 233 204 190 186 188 202 199 194 196 204 213 212 207 213 215 222 185 154 188 210 204 121 84 77 92 77 276 210 280 269 284 316 240 264 221 176 154 206
29 40 38 343 0 322 314 98 224 267 282 282 330 281 205 181 149 200 178 193 160 152 179 207 226 216 192 188 194 200 199 205 195 194 226 222 207 212 219 183 168 182 171 182 196 161 181 112 155 153 165 224 226 234 252 294 282 251 244 164 180 184
25 24 0 329 319 0 321 296 318 306 282 301 275 315 301 245 149 221 181 201 215 163 166 193 202 203 196 199 196 195 197 197 198 200 207 219 212 216 218 185 187 199 185 182 166 170 151 164 168 150 136 283 239 236 230 292 278 282 307 186 69 235
8 359 328 333 315 322 327 308 268 267 278 280 304 301 279 228 209 204 219 210 216 199 169 176 187 190 197 200 197 195 196 208 215 207 206 217 211 213 210 198 185 198 186 198 193 192 182 169 163 144 162 194 229 251 228 217 216 237 233 232 214 221
11 359 8 10 343 324 300 300 282 256 246 288 285 254 248 254 229 203 236 232 217 209 199 178 186 199 191 204 200 198 197 208 213 210 211 219 219 214 207 203 194 191 197 205 208 191 185 178 182 197 157 131 177 211 229 229 166 237 198 217 209 231
3 2 356 10 351 347 331 313 316 310 310 243 235 292 297 321 343 316 269 235 291 240 203 202 185 203 204 197 202 201 198 199 208 209 210 220 226 223 215 209 194 197 202 202 208 194 193 184 194 194 220 220 90 161 157 82 140 235 185 233 220 222
8 1 4 0 351 351 347 338 328 308 286 294 298 285 301 279 261 260 228 256 265 287 294 235 237 206 197 201 207 205 198 209 216 222 221 222 222 222 220 216 203 197 202 194 193 205 199 194 181 207 211 225 198 140 199 151 193 101 206 219 233 235
11 4 5 357 350 357 346 342 336 325 318 323 316 313 286 275 261 217 245 266 252 232 206 219 224 229 219 208 202 204 202 201 211 222 228 229 231 228 232 230 222 209 197 196 193 202 201 192 190 198 196 203 196 170 212 264 248 201 277 210 222 242
13 8 359 356 354 352 346 341 341 340 340 326 310 302 310 300 301 324 292 249 259 250 222 210 215 189 248 237 219 218 200 198 208 222 223 232 231 226 221 228 226 221 211 205 201 202 199 203 197 199 175 195 194 196 215 228 235 119 195 262 227 205
16 9 359 350 350 347 346 345 345 349 350 345 346 337 322 312 303 308 303 301 289 307 295 265 210 166 237 292 291 274 257 228 224 224 221 229 225 225 227 230 228 225 221 218 207 204 205 204 200 199 192 171 180 186 185 224 232 195 209 233 233 210
24 4 1 356 347 351 350 351 351 348 348 351 349 340 337 336 339 332 316 308 337 287 293 300 300 184 186 226 233 235 233 239 238 220 227 233 233 229 229 229 234 226 226 226 218 207 208 210 201 199 196 189 192 187 190 198 203 190 190 198 216 240
33 10 4 2 351 353 353 351 349 351 351 349 345 343 339 334 339 334 332 328 318 287 288 282 285 295 207 198 223 250 283 283 268 251 231 233 237 237 236 231 227 232 235 233 227 217 212 211 209 205 202 198 201 193 195 197 186 174 190 215 219 237
47 15 12 14 354 356 359 355 354 353 351 350 348 346 340 338 340 332 330 323 322 316 305 284 279 269 250 246 180 229 250 252 279 276 284 265 259 252 244 233 226 230 231 229 228 222 222 215 207 205 207 203 202 197 202 191 157 179 193 176 166 249
28 14 21 15 7 11 4 354 355 358 352 351 352 346 335 331 330 327 327 323 318 311 306 298 294 274 253 244 232 211 210 248 247 253 263 263 253 263 250 241 234 231 234 231 231 225 225 222 212 212 208 203 202 200 202 182 176 181 191 179 189 205
21 7 13 14 7 18 12 350 5 8 354 356 347 339 335 331 330 324 324 317 311 306 306 308 303 303 293 277 265 183 203 242 238 241 249 255 264 263 285 276 240 235 246 240 231 227 242 234 222 213 210 208 204 201 194 183 177 191 193 197 196 175
20 19 22 13 8 1 348 15 6 8 352 356 346 335 330 333 333 331 324 317 308 306 306 304 300 297 299 300 294 249 221 214 222 233 234 232 233 242 224 253 257 248 235 225 229 232 226 225 226 218 215 214 207 202 194 186 186 196 202 198 188 155
22 20 8 9 358 2 5 4 3 10 357 357 1 352 344 338 336 330 323 318 314 312 312 315 316 314 308 310 303 284 263 242 229 235 242 230 236 240 248 242 244 243 237 243 249 237 229 226 225 219 215 214 211 203 193 185 184 185 189 184 189 185